Tracking 17141 objects as of 6-July-2015
HD Live streaming from Space Station

YAMAL 202

Track YAMAL 202 now!
YAMAL 202 is classified as:


NORAD ID: 28089
Int'l Code: 2003-053A
Perigee: 35,779.6 km
Apogee: 35,806.6 km
Inclination: 0.0 °
Period: 1,436.1 minutes
Semi major axis: 42164 km
RCS: 0.003 m2 (small)
Launch date: November 24, 2003
Source: Commonwealth of Independent States (former USSR) (CIS)

18 C-band; provide communications for gas corporation operations throughout Eurasian continent.
Your satellite tracking list
Your tracking list is empty





NASA's NSSDC Master Catalog

Two Line Element Set (TLE):
1 28089U 03053A   15184.01070824  .00000115  00000-0  00000+0 0  9995
2 28089 000.0078 313.6436 0003195 159.0817 220.8763 01.00274024 42542

Source of the keplerian elements: AFSPC

N2YO: 275